#timestamp,LO_Frequency,Hit,Temp,Hum 
1480456815.3,286046262.5,N,0.0,0.0
1480456835.1,286046264.9,N,0.0,0.0
1480456855.9,286046266.0,N,0.0,0.0
1480456875.7,286046267.9,N,0.0,0.0
1480456895.6,286046267.3,N,0.0,0.0
1480456915.4,286046267.0,N,0.0,0.0
1480456935.2,286046269.8,N,0.0,0.0
1480456955.1,286046269.2,N,0.0,0.0
1480456956.0,286046269.2,N,0.0,0.0
1480456975.8,286046270.3,N,0.0,0.0
1480456995.7,286046268.5,N,0.0,0.0
1480457015.5,286046268.9,N,0.0,0.0
1480457035.3,286046271.5,N,0.0,0.0
1480457055.2,286046269.7,N,0.0,0.0
1480457075.0,286046267.3,N,0.0,0.0
1480457075.9,286046267.3,N,0.0,0.0
1480457095.8,286046269.2,N,0.0,0.0
1480457115.6,286046268.8,N,0.0,0.0
1480457135.4,286046270.7,N,0.0,0.0
1480457155.3,286046268.8,N,0.0,0.0
1480457175.1,286046268.5,N,0.0,0.0
1480457195.9,286046271.3,N,0.0,0.0
1480457215.7,286046270.2,N,0.0,0.0
1480457235.5,286046273.2,N,0.0,0.0
1480457255.4,286046271.3,N,0.0,0.0
1480457275.2,286046266.9,N,0.0,0.0
1480457295.0,286046268.7,N,0.0,0.0
1480457295.9,286046268.7,N,0.0,0.0
1480457315.8,286046269.4,N,0.0,0.0
1480457335.6,286046269.5,N,0.0,0.0
1480457355.5,286046270.0,N,0.0,0.0
1480457375.3,286046265.8,N,0.0,0.0
1480457395.1,286046266.5,N,0.0,0.0
1480457415.9,286046269.6,N,0.0,0.0
1480457435.7,286046271.0,N,0.0,0.0
1480457455.5,286046272.7,N,0.0,0.0
1480457475.4,286046271.6,N,0.0,0.0
1480457495.2,286046270.4,N,0.0,0.0
1480457515.1,286046273.1,N,0.0,0.0
1480457516.0,286046273.1,N,0.0,0.0
1480457535.8,286046272.1,N,0.0,0.0
1480457555.6,286046271.3,N,0.0,0.0
1480457575.5,286046272.5,N,0.0,0.0
1480457595.3,286046272.8,N,0.0,0.0
1480457615.2,286046270.8,N,0.0,0.0
1480457635.9,286046267.1,N,0.0,0.0
1480457655.7,286046269.3,N,0.0,0.0
1480457675.6,286046267.1,N,0.0,0.0
1480457695.4,286046269.4,N,0.0,0.0
1480457715.2,286046271.3,N,0.0,0.0
1480457735.1,286046272.9,N,0.0,0.0
1480457736.0,286046272.9,N,0.0,0.0
1480457755.8,286046269.2,N,0.0,0.0
1480457775.7,286046269.6,N,0.0,0.0
1480457795.5,286046269.0,N,0.0,0.0
1480457815.3,286046272.6,N,0.0,0.0
1480457835.2,286046274.6,N,0.0,0.0
1480457855.0,286046275.8,N,0.0,0.0
1480457855.9,286046275.8,N,0.0,0.0
1480457875.8,286046273.3,N,0.0,0.0
1480457895.6,286046272.6,N,0.0,0.0
1480457915.4,286046270.3,N,0.0,0.0
1480457935.3,286046270.2,N,0.0,0.0
1480457955.1,286046269.3,N,0.0,0.0
1480457975.9,286046268.8,N,0.0,0.0
1480457995.7,286046267.8,N,0.0,0.0
1480458015.5,286046269.5,N,0.0,0.0
1480458035.4,286046267.2,N,0.0,0.0
1480458055.2,286046269.3,N,0.0,0.0
1480458075.0,286046269.8,N,0.0,0.0
1480458076.0,286046269.8,N,0.0,0.0
1480458095.8,286046269.0,N,0.0,0.0
1480458115.6,286046268.9,N,0.0,0.0
1480458135.5,286046272.1,N,0.0,0.0
1480458155.3,286046275.9,N,0.0,0.0
1480458175.1,286046277.6,N,0.0,0.0
1480458195.9,286046275.5,N,0.0,0.0
1480458215.7,286046275.6,N,0.0,0.0
1480458235.6,286046274.4,N,0.0,0.0
1480458255.4,286046277.2,N,0.0,0.0
1480458275.2,286046275.1,N,0.0,0.0
1480458295.1,286046276.2,N,0.0,0.0
1480458296.0,286046276.2,N,0.0,0.0
1480458315.8,286046277.3,N,0.0,0.0
1480458335.7,286046277.2,N,0.0,0.0
1480458355.5,286046275.3,N,0.0,0.0
1480458375.3,286046277.9,N,0.0,0.0
1480458395.2,286046275.7,N,0.0,0.0
1480458415.0,286046270.5,N,0.0,0.0
1480458415.9,286046270.5,N,0.0,0.0
1480458435.8,286046272.3,N,0.0,0.0
1480458455.6,286046275.1,N,0.0,0.0
1480458475.4,286046273.6,N,0.0,0.0
1480458495.3,286046274.0,N,0.0,0.0
1480458515.1,286046275.6,N,0.0,0.0
1480458535.8,286046277.7,N,0.0,0.0
1480458555.7,286046279.5,N,0.0,0.0
1480458575.5,286046278.6,N,0.0,0.0
1480458595.4,286046278.2,N,0.0,0.0
1480458615.2,286046280.7,N,0.0,0.0
1480458635.0,286046279.7,N,0.0,0.0
1480458635.9,286046279.7,N,0.0,0.0
1480458655.8,286046280.4,N,0.0,0.0
1480458675.6,286046280.1,N,0.0,0.0
1480458695.4,286046282.1,N,0.0,0.0
1480458715.3,286046281.5,N,0.0,0.0
1480458735.1,286046283.4,N,0.0,0.0
1480458755.9,286046283.7,N,0.0,0.0
1480458775.7,286046283.6,N,0.0,0.0
1480458795.5,286046283.4,N,0.0,0.0
1480458815.4,286046283.1,N,0.0,0.0
1480458835.2,286046281.2,N,0.0,0.0
1480458855.0,286046281.1,N,0.0,0.0
1480458856.0,286046281.1,N,0.0,0.0
1480458875.8,286046280.8,N,0.0,0.0
1480458895.6,286046281.6,N,0.0,0.0
1480458915.5,286046281.3,N,0.0,0.0
1480458935.3,286046283.2,N,0.0,0.0
1480458955.1,286046278.7,N,0.0,0.0
1480458975.9,286046275.8,N,0.0,0.0
1480458995.7,286046277.2,N,0.0,0.0
1480459015.6,286046279.2,N,0.0,0.0
1480459035.4,286046279.0,N,0.0,0.0
1480459055.2,286046280.1,N,0.0,0.0
1480459075.1,286046282.3,N,0.0,0.0
1480459076.0,286046282.3,N,0.0,0.0
1480459095.8,286046282.0,N,0.0,0.0
1480459115.7,286046282.8,N,0.0,0.0
1480459135.5,286046281.7,N,0.0,0.0
1480459155.3,286046281.7,N,0.0,0.0
1480459175.2,286046285.9,N,0.0,0.0
1480459195.0,286046285.8,N,0.0,0.0
1480459195.9,286046285.8,N,0.0,0.0
1480459215.8,286046282.9,N,0.0,0.0
1480459235.6,286046283.8,N,0.0,0.0
1480459255.4,286046283.3,N,0.0,0.0
1480459275.3,286046283.4,N,0.0,0.0
1480459295.1,286046281.8,N,0.0,0.0
1480459315.9,286046281.5,N,0.0,0.0
1480459335.7,286046280.3,N,0.0,0.0
1480459355.5,286046279.2,N,0.0,0.0
1480459375.4,286046278.5,N,0.0,0.0
1480459395.2,286046281.9,N,0.0,0.0
1480459415.0,286046284.0,N,0.0,0.0
1480459416.0,286046284.0,N,0.0,0.0
1480459435.8,286046283.0,N,0.0,0.0
1480459455.6,286046284.7,N,0.0,0.0
1480459475.5,286046287.5,N,0.0,0.0
1480459495.3,286046286.5,N,0.0,0.0
1480459515.1,286046286.3,N,0.0,0.0
1480459535.9,286046286.7,N,0.0,0.0
1480459555.7,286046285.7,N,0.0,0.0
1480459575.6,286046284.9,N,0.0,0.0
1480459595.4,286046287.3,N,0.0,0.0
1480459615.2,286046288.6,N,0.0,0.0
1480459635.1,286046288.3,N,0.0,0.0
1480459636.0,286046288.3,N,0.0,0.0
1480459655.8,286046288.4,N,0.0,0.0
1480459675.7,286046287.3,N,0.0,0.0
1480459695.5,286046286.5,N,0.0,0.0
1480459715.3,286046288.7,N,0.0,0.0
1480459735.2,286046290.3,N,0.0,0.0
1480459755.0,286046290.2,N,0.0,0.0
1480459755.9,286046290.2,N,0.0,0.0
1480459775.8,286046290.6,N,0.0,0.0
1480459795.6,286046288.4,N,0.0,0.0
1480459815.4,286046286.2,N,0.0,0.0
1480459835.3,286046286.8,N,0.0,0.0
1480459855.1,286046286.4,N,0.0,0.0
1480459875.8,286046286.6,N,0.0,0.0
1480459895.7,286046286.9,N,0.0,0.0
1480459915.5,286046286.2,N,0.0,0.0
1480459935.4,286046288.0,N,0.0,0.0
1480459955.2,286046288.9,N,0.0,0.0
1480459975.0,286046290.7,N,0.0,0.0
1480459975.9,286046290.7,N,0.0,0.0
1480459995.8,286046289.3,N,0.0,0.0
1480460015.6,286046291.4,N,0.0,0.0
1480460035.5,286046291.9,N,0.0,0.0
1480460055.3,286046291.3,N,0.0,0.0
1480460075.1,286046291.4,N,0.0,0.0
1480460095.9,286046291.0,N,0.0,0.0
1480460115.7,286046291.1,N,0.0,0.0
1480460135.6,286046291.4,N,0.0,0.0
1480460155.4,286046291.3,N,0.0,0.0
1480460175.2,286046293.1,N,0.0,0.0
1480460195.1,286046293.9,N,0.0,0.0
1480460196.0,286046293.9,N,0.0,0.0
1480460215.8,286046293.8,N,0.0,0.0
1480460235.7,286046293.3,N,0.0,0.0
1480460255.5,286046292.5,N,0.0,0.0
1480460275.3,286046291.3,N,0.0,0.0
1480460295.2,286046293.2,N,0.0,0.0
1480460315.0,286046293.2,N,0.0,0.0
1480460315.9,286046293.2,N,0.0,0.0
1480460335.7,286046293.7,N,0.0,0.0
1480460355.6,286046291.4,N,0.0,0.0
1480460375.4,286046293.6,N,0.0,0.0
1480460395.3,286046293.3,N,0.0,0.0
